This is the latest recevied weather packets stored in our database for station/object WX2NJ. If no packets are shown the sender has not sent any weather packets the latest 10 day(s).
| Time | Temp. | Humidity | Pressure | Rain* | Wind** | Luminosity | Snow |
|---|---|---|---|---|---|---|---|
| 1777766795 | 10.56° C | 81% | 1014 hPa | 0 mm | - | 0 W/m² | - |
| 1777766492 | 10.56° C | 80% | 1014 hPa | 0 mm | - | 0 W/m² | - |
| 1777766189 | 10.56° C | 79% | 1014 hPa | 0 mm | - | 0 W/m² | - |
| 1777765887 | 11.11° C | 79% | 1014 hPa | 0 mm | - | 0 W/m² | - |
| 1777765582 | 11.11° C | 78% | 1014 hPa | 0 mm | - | 0 W/m² | - |
| 1777765280 | 11.67° C | 77% | 1013.8 hPa | 0 mm | - | 1 W/m² | - |
| 1777764976 | 11.67° C | 77% | 1014.1 hPa | 0 mm | - | 2 W/m² | - |
| 1777764673 | 11.67° C | 76% | 1014.1 hPa | 0 mm | - | 7 W/m² | - |
| 1777764368 | 12.22° C | 75% | 1014.1 hPa | 0 mm | - | 10 W/m² | - |
| 1777764066 | 12.22° C | 75% | 1013.9 hPa | 0 mm | - | 17 W/m² | - |
| 1777763763 | 12.22° C | 75% | 1014 hPa | 0 mm | - | 21 W/m² | - |
| 1777763461 | 12.22° C | 74% | 1013.9 hPa | 0 mm | - | 18 W/m² | - |
| 1777763159 | 12.78° C | 74% | 1014.1 hPa | 0 mm | - | 24 W/m² | - |
| 1777762857 | 12.78° C | 72% | 1014 hPa | 0 mm | - | 33 W/m² | - |
| 1777762552 | 12.78° C | 72% | 1014.1 hPa | 0 mm | - | 32 W/m² | - |
| 1777762250 | 12.78° C | 73% | 1013.9 hPa | 0 mm | - | 43 W/m² | - |
| 1777761946 | 12.78° C | 73% | 1014 hPa | 0 mm | - | 45 W/m² | - |
| 1777761643 | 12.78° C | 73% | 1014 hPa | 0 mm | - | 45 W/m² | - |
| 1777761341 | 12.78° C | 73% | 1014 hPa | 0 mm | - | 42 W/m² | - |
| 1777761039 | 12.78° C | 73% | 1013.9 hPa | 0 mm | - | 50 W/m² | - |
| 1777760736 | 12.78° C | 72% | 1013.8 hPa | 0 mm | - | 49 W/m² | - |
| 1777760432 | 12.78° C | 72% | 1013.9 hPa | 0 mm | - | 54 W/m² | - |
| 1777760128 | 12.78° C | 73% | 1013.9 hPa | 0 mm | - | 51 W/m² | - |
| 1777759825 | 12.78° C | 73% | 1014 hPa | 0 mm | - | 75 W/m² | - |
| 1777759521 | 12.78° C | 73% | 1013.8 hPa | 0 mm | - | 78 W/m² | - |
* Rain latest hour (hover to see other rain measurements)
** Current wind speed in m/s (hover to see current wind gust speed)